KA1CNF Weather Reports


time (UTC)temp
C
wind
direction
speed
KPH
gust
KPH
rain 1hr
cm
rain 24hr
cm
rain mn
cm
humidity
%
barometer
mb
20260505063016 18 180 11.3 27.4 0.00 0.00 0.00 67 1000.9
20260505060016 18 180 11.3 30.6 0.00 0.00 0.00 67 1000.8
20260505053015 18 180 12.9 33.8 0.00 0.00 0.00 65 1000.9
20260505040015 18 202 11.3 25.7 0.00 0.00 0.00 60 1001.3
20260505033017 15 180 9.7 43.5 0.00 0.00 0.00 63 1001.3
20260505030017 13 247 4.8 8.0 0.00 0.00 0.00 72 1001.1
20260505023037 14 247 1.6 4.8 0.00 0.00 0.00 67 1001.2
20260505020017 15 0.0 0.0 0.00 0.00 0.00 60 1001.6
20260505013036 16 0.0 0.0 0.00 0.00 0.00 56 1001.4
20260505010038 18 0.0 0.0 0.00 0.00 0.00 49 1001.1
20260505003036 20 0.0 3.2 0.00 0.00 0.00 44 1001.1
20260505000037 21 247 3.2 8.0 0.00 0.00 0.00 40 1001.1
20260504233016 22 247 3.2 9.7 0.00 0.00 0.00 39 1001.0
20260504230016 22 225 6.4 22.5 0.00 0.00 0.00 35 1000.9
20260504223036 23 202 8.0 22.5 0.00 0.00 0.00 36 1000.8
20260504220016 23 225 9.7 29.0 0.00 0.00 0.00 35 1001.0
20260504213017 24 247 8.0 33.8 0.00 0.00 0.00 38 1001.2
20260504210016 24 225 9.7 29.0 0.00 0.00 0.00 35 1001.5
20260504203016 23 225 11.3 27.4 0.00 0.00 0.00 37 1001.7
20260504200056 23 225 9.7 35.4 0.00 0.00 0.00 41 1002.0
20260504193016 23 225 9.7 22.5 0.00 0.00 0.00 37 1002.4
20260504190016 23 225 9.7 25.7 0.00 0.00 0.00 40 1002.8
20260504183016 23 225 11.3 32.2 0.00 0.00 0.00 43 1003.2
20260504180117 22 225 9.7 27.4 0.00 0.00 0.00 48 1003.5
20260504173015 21 225 11.3 37.0 0.00 0.00 0.00 48 1003.7